| time (UTC) | temp F | wind direction | speed MPH | gust MPH | rain 1hr in | rain 24hr in | rain mn in | humidity % | barometer mb |
| 20260507040003 | 40 | 272 | 5.0 | 13.0 | 0.00 | 0.09 | 0.00 | 63 | 1011.4 |
| 20260507035003 | 40 | 276 | 5.0 | 11.0 | 0.00 | 0.09 | 0.09 | 62 | 1011.3 |
| 20260507034003 | 40 | 275 | 6.0 | 11.0 | 0.00 | 0.09 | 0.09 | 62 | 1011.2 |
| 20260507033024 | 40 | 277 | 5.0 | 11.0 | 0.00 | 0.09 | 0.09 | 62 | 1011.1 |
| 20260507032025 | 40 | 281 | 5.0 | 13.0 | 0.00 | 0.09 | 0.09 | 62 | 1011.2 |
| 20260507031003 | 41 | 277 | 4.0 | 10.0 | 0.00 | 0.09 | 0.09 | 62 | 1011.3 |
| 20260507030003 | 41 | 271 | 4.0 | 9.0 | 0.00 | 0.09 | 0.09 | 62 | 1011.5 |
| 20260507025003 | 41 | 275 | 4.0 | 11.0 | 0.00 | 0.09 | 0.09 | 61 | 1011.3 |
| 20260507024003 | 41 | 273 | 3.0 | 10.0 | 0.00 | 0.09 | 0.09 | 61 | 1011.4 |
| 20260507023003 | 42 | 275 | 3.0 | 9.0 | 0.00 | 0.09 | 0.09 | 62 | 1011.3 |
| 20260507022003 | 42 | 276 | 4.0 | 10.0 | 0.00 | 0.09 | 0.09 | 62 | 1011.3 |
| 20260507021003 | 42 | 276 | 4.0 | 10.0 | 0.00 | 0.09 | 0.09 | 61 | 1011.2 |
| 20260507020003 | 43 | 262 | 3.0 | 8.0 | 0.00 | 0.09 | 0.09 | 61 | 1011.3 |
| 20260507015024 | 43 | 270 | 3.0 | 9.0 | 0.00 | 0.09 | 0.09 | 61 | 1011.3 |
| 20260507014003 | 44 | 279 | 4.0 | 8.0 | 0.00 | 0.09 | 0.09 | 61 | 1011.2 |
| 20260507013024 | 44 | 281 | 4.0 | 12.0 | 0.00 | 0.09 | 0.09 | 59 | 1011.1 |
| 20260507012003 | 44 | 278 | 5.0 | 15.0 | 0.00 | 0.09 | 0.09 | 57 | 1011.0 |
| 20260507011024 | 45 | 280 | 4.0 | 16.0 | 0.00 | 0.09 | 0.09 | 56 | 1010.9 |
| 20260507010003 | 45 | 277 | 6.0 | 12.0 | 0.00 | 0.09 | 0.09 | 55 | 1010.8 |
| 20260507005003 | 46 | 280 | 6.0 | 17.0 | 0.00 | 0.09 | 0.09 | 55 | 1010.6 |
| 20260507004003 | 46 | 275 | 2.0 | 8.0 | 0.00 | 0.09 | 0.09 | 64 | 1010.6 |
| 20260507003003 | 46 | 271 | 1.0 | 4.0 | 0.00 | 0.09 | 0.09 | 71 | 1010.6 |
| 20260507002003 | 47 | 262 | 1.0 | 4.0 | 0.00 | 0.09 | 0.09 | 70 | 1010.5 |
| 20260507001003 | 48 | 279 | 0.0 | 3.0 | 0.00 | 0.09 | 0.09 | 69 | 1010.3 |
| 20260507000003 | 48 | 264 | 1.0 | 3.0 | 0.00 | 0.09 | 0.09 | 70 | 1010.1 |
| 20260506235003 | 47 | 280 | 2.0 | 6.0 | 0.00 | 0.09 | 0.09 | 72 | 1010.2 |
| 20260506234003 | 47 | 273 | 2.0 | 7.0 | 0.00 | 0.09 | 0.09 | 74 | 1010.2 |
| 20260506233003 | 47 | 276 | 2.0 | 6.0 | 0.00 | 0.09 | 0.09 | 76 | 1010.0 |
| 20260506232003 | 47 | 276 | 2.0 | 8.0 | 0.00 | 0.09 | 0.09 | 77 | 1010.0 |
| 20260506231003 | 47 | 261 | 1.0 | 7.0 | 0.00 | 0.09 | 0.09 | 78 | 1010.0 |
| 20260506230004 | 47 | 280 | 3.0 | 8.0 | 0.00 | 0.09 | 0.09 | 80 | 1009.7 |
| 20260506225003 | 47 | 278 | 4.0 | 9.0 | 0.00 | 0.09 | 0.09 | 79 | 1009.6 |
| 20260506224004 | 47 | 276 | 3.0 | 9.0 | 0.00 | 0.09 | 0.09 | 82 | 1009.6 |
| 20260506223003 | 47 | 272 | 3.0 | 11.0 | 0.00 | 0.09 | 0.09 | 81 | 1009.6 |
| 20260506222003 | 47 | 285 | 4.0 | 10.0 | 0.00 | 0.09 | 0.09 | 83 | 1009.5 |
| 20260506221003 | 47 | 278 | 4.0 | 13.0 | 0.00 | 0.09 | 0.09 | 83 | 1009.4 |
| 20260506220003 | 47 | 277 | 4.0 | 10.0 | 0.00 | 0.09 | 0.09 | 85 | 1009.4 |
| 20260506215004 | 46 | 273 | 3.0 | 8.0 | 0.00 | 0.09 | 0.09 | 86 | 1009.4 |
| 20260506214003 | 46 | 277 | 4.0 | 9.0 | 0.00 | 0.09 | 0.09 | 86 | 1009.4 |
| 20260506213003 | 47 | 271 | 4.0 | 12.0 | 0.00 | 0.09 | 0.09 | 85 | 1009.4 |
| 20260506212003 | 49 | 274 | 2.0 | 9.0 | 0.00 | 0.09 | 0.09 | 83 | 1009.2 |
| 20260506211003 | 48 | 275 | 3.0 | 10.0 | 0.00 | 0.09 | 0.09 | 83 | 1009.2 |
| 20260506210003 | 48 | 276 | 4.0 | 14.0 | 0.00 | 0.10 | 0.09 | 82 | 1009.2 |
| 20260506205003 | 49 | 258 | 3.0 | 11.0 | 0.00 | 0.11 | 0.09 | 80 | 1009.3 |
| 20260506204003 | 50 | 260 | 3.0 | 11.0 | 0.00 | 0.11 | 0.09 | 76 | 1009.2 |
| 20260506203003 | 50 | 187 | 1.0 | 6.0 | 0.00 | 0.11 | 0.09 | 76 | 1009.0 |
| 20260506202003 | 51 | 184 | 1.0 | 4.0 | 0.00 | 0.11 | 0.09 | 75 | 1008.9 |
| 20260506201003 | 51 | 160 | 2.0 | 5.0 | 0.00 | 0.11 | 0.09 | 73 | 1009.0 |
| 20260506200024 | 51 | 183 | 1.0 | 5.0 | 0.00 | 0.11 | 0.09 | 71 | 1009.1 |
| 20260506195024 | 52 | 161 | 2.0 | 6.0 | 0.00 | 0.11 | 0.09 | 70 | 1009.2 |
| 20260506194003 | 53 | 166 | 1.0 | 4.0 | 0.00 | 0.11 | 0.09 | 68 | 1009.0 |
| 20260506193003 | 53 | 174 | 1.0 | 7.0 | 0.00 | 0.11 | 0.09 | 67 | 1008.9 |
| 20260506192003 | 53 | 216 | 1.0 | 6.0 | 0.00 | 0.11 | 0.09 | 67 | 1008.9 |
| 20260506191003 | 53 | 155 | 3.0 | 7.0 | 0.00 | 0.11 | 0.09 | 68 | 1009.0 |
| 20260506190004 | 53 | 163 | 1.0 | 6.0 | 0.00 | 0.11 | 0.09 | 66 | 1009.0 |
| 20260506185003 | 52 | 172 | 1.0 | 6.0 | 0.00 | 0.11 | 0.09 | 67 | 1008.9 |
| 20260506184003 | 52 | 155 | 1.0 | 4.0 | 0.00 | 0.11 | 0.09 | 66 | 1009.0 |
| 20260506183003 | 52 | 123 | 1.0 | 4.0 | 0.00 | 0.11 | 0.09 | 66 | 1009.0 |
| 20260506182024 | 52 | 250 | 1.0 | 3.0 | 0.00 | 0.11 | 0.09 | 65 | 1009.1 |
| 20260506181003 | 53 | 138 | 1.0 | 4.0 | 0.00 | 0.11 | 0.09 | 64 | 1009.1 |
| 20260506180004 | 53 | 271 | 1.0 | 7.0 | 0.00 | 0.11 | 0.09 | 62 | 1009.1 |
| 20260506175003 | 52 | 278 | 2.0 | 5.0 | 0.00 | 0.11 | 0.09 | 65 | 1009.0 |
| 20260506174004 | 54 | 167 | 1.0 | 4.0 | 0.00 | 0.11 | 0.09 | 63 | 1009.1 |
| 20260506173025 | 51 | 26 | 1.0 | 3.0 | 0.00 | 0.11 | 0.09 | 68 | 1009.1 |
| 20260506172004 | 52 | 158 | 1.0 | 3.0 | 0.00 | 0.11 | 0.09 | 67 | 1009.3 |
| 20260506171003 | 50 | 337 | 2.0 | 6.0 | 0.00 | 0.11 | 0.09 | 70 | 1009.4 |
| 20260506170025 | 51 | 340 | 0.0 | 4.0 | 0.00 | 0.11 | 0.09 | 68 | 1009.4 |
| 20260506165003 | 49 | 278 | 2.0 | 6.0 | 0.00 | 0.11 | 0.09 | 71 | 1009.6 |
| 20260506164003 | 50 | 265 | 0.0 | 4.0 | 0.00 | 0.11 | 0.09 | 71 | 1009.6 |
| 20260506163003 | 48 | 347 | 0.0 | 3.0 | 0.00 | 0.11 | 0.09 | 73 | 1009.6 |
| 20260506162003 | 49 | 151 | 1.0 | 3.0 | 0.00 | 0.11 | 0.09 | 72 | 1009.5 |
| 20260506161004 | 49 | 147 | 0.0 | 3.0 | 0.00 | 0.11 | 0.09 | 74 | 1009.4 |
| 20260506160003 | 48 | 117 | 0.0 | 2.0 | 0.00 | 0.11 | 0.09 | 76 | 1009.2 |
| 20260506155003 | 47 | 163 | 0.0 | 3.0 | 0.00 | 0.11 | 0.09 | 80 | 1009.3 |
| 20260506154003 | 47 | 132 | 1.0 | 2.0 | 0.00 | 0.11 | 0.09 | 80 | 1009.4 |
| 20260506153003 | 47 | 132 | 0.0 | 2.0 | 0.00 | 0.11 | 0.09 | 82 | 1009.4 |
| 20260506152002 | 48 | 135 | 0.0 | 1.0 | 0.00 | 0.11 | 0.09 | 82 | 1009.4 |
| 20260506151024 | 47 | 112 | 0.0 | 1.0 | 0.00 | 0.11 | 0.09 | 82 | 1009.3 |
| 20260506150003 | 46 | 92 | 0.0 | 2.0 | 0.00 | 0.11 | 0.09 | 83 | 1009.2 |
| 20260506145002 | 46 | 124 | 0.0 | 2.0 | 0.00 | 0.11 | 0.09 | 85 | 1009.2 |
| 20260506144023 | 46 | 117 | 0.0 | 2.0 | 0.01 | 0.11 | 0.09 | 84 | 1009.4 |
| 20260506143002 | 46 | 125 | 0.0 | 3.0 | 0.01 | 0.11 | 0.09 | 85 | 1009.5 |
| 20260506142002 | 45 | 71 | 0.0 | 1.0 | 0.01 | 0.11 | 0.09 | 87 | 1009.5 |
| 20260506141024 | 44 | 192 | 0.0 | 1.0 | 0.01 | 0.11 | 0.09 | 91 | 1009.6 |
| 20260506140002 | 44 | 273 | 0.0 | 1.0 | 0.01 | 0.11 | 0.09 | 93 | 1009.7 |
| 20260506135002 | 43 | 274 | 0.0 | 1.0 | 0.01 | 0.11 | 0.09 | 93 | 1009.7 |
| 20260506134002 | 43 | 89 | 0.0 | 1.0 | 0.00 | 0.10 | 0.09 | 93 | 1009.9 |
| 20260506133002 | 43 | 0 | 0.0 | 0.0 | 0.00 | 0.10 | 0.09 | 93 | 1009.5 |
| 20260506132002 | 43 | 0 | 0.0 | 0.0 | 0.01 | 0.10 | 0.09 | 93 | 1009.3 |
| 20260506130003 | 43 | 0 | 0.0 | 0.0 | 0.02 | 0.10 | 0.09 | 93 | 1009.4 |
| 20260506125003 | 43 | 0 | 0.0 | 0.0 | 0.02 | 0.10 | 0.09 | 94 | 1009.5 |
| 20260506124003 | 43 | 76 | 0.0 | 1.0 | 0.02 | 0.10 | 0.09 | 94 | 1009.2 |
| 20260506123003 | 42 | 71 | 0.0 | 2.0 | 0.02 | 0.10 | 0.09 | 94 | 1009.1 |
| 20260506122003 | 42 | 128 | 0.0 | 1.0 | 0.02 | 0.09 | 0.08 | 94 | 1009.2 |
| 20260506121003 | 42 | 128 | 0.0 | 1.0 | 0.02 | 0.09 | 0.08 | 95 | 1009.2 |
| 20260506120003 | 42 | 147 | 0.0 | 1.0 | 0.01 | 0.09 | 0.07 | 94 | 1009.4 |
| 20260506115003 | 42 | 138 | 0.0 | 1.0 | 0.01 | 0.09 | 0.07 | 95 | 1009.3 |
| 20260506114024 | 42 | 131 | 0.0 | 1.0 | 0.01 | 0.09 | 0.07 | 95 | 1009.1 |
| 20260506113003 | 42 | 139 | 0.0 | 1.0 | 0.00 | 0.08 | 0.06 | 95 | 1009.3 |
| 20260506112003 | 42 | 139 | 0.0 | 1.0 | 0.00 | 0.08 | 0.06 | 95 | 1009.2 |
| 20260506111003 | 42 | 0 | 0.0 | 0.0 | 0.00 | 0.08 | 0.06 | 95 | 1009.0 |
| 20260506110024 | 42 | 139 | 0.0 | 1.0 | 0.00 | 0.08 | 0.06 | 95 | 1008.9 |
| 20260506105003 | 42 | 143 | 0.0 | 1.0 | 0.00 | 0.08 | 0.06 | 95 | 1008.8 |
| 20260506104003 | 42 | 143 | 0.0 | 1.0 | 0.00 | 0.08 | 0.06 | 95 | 1008.8 |
| 20260506103003 | 42 | 0 | 0.0 | 0.0 | 0.00 | 0.08 | 0.06 | 95 | 1008.8 |
| 20260506102003 | 42 | 0 | 0.0 | 0.0 | 0.00 | 0.08 | 0.06 | 94 | 1008.8 |
| 20260506101003 | 42 | 166 | 0.0 | 1.0 | 0.00 | 0.08 | 0.06 | 94 | 1008.9 |
| 20260506100003 | 42 | 161 | 0.0 | 1.0 | 0.00 | 0.08 | 0.06 | 94 | 1008.7 |
| 20260506095024 | 42 | 153 | 0.0 | 1.0 | 0.00 | 0.08 | 0.06 | 94 | 1008.7 |
| 20260506094003 | 42 | 157 | 0.0 | 1.0 | 0.01 | 0.08 | 0.06 | 94 | 1008.7 |
| 20260506093003 | 42 | 167 | 0.0 | 3.0 | 0.01 | 0.08 | 0.06 | 94 | 1008.9 |
| 20260506092003 | 42 | 175 | 0.0 | 4.0 | 0.01 | 0.08 | 0.06 | 94 | 1009.0 |
| 20260506091003 | 43 | 142 | 0.0 | 2.0 | 0.02 | 0.08 | 0.06 | 94 | 1009.1 |
| 20260506090003 | 43 | 153 | 1.0 | 2.0 | 0.02 | 0.08 | 0.06 | 94 | 1009.4 |
| 20260506085003 | 43 | 166 | 0.0 | 3.0 | 0.02 | 0.08 | 0.06 | 94 | 1009.4 |
| 20260506084003 | 43 | 166 | 0.0 | 3.0 | 0.02 | 0.07 | 0.06 | 94 | 1009.2 |
| 20260506083003 | 43 | 116 | 0.0 | 1.0 | 0.02 | 0.07 | 0.06 | 94 | 1008.9 |
| 20260506082024 | 43 | 0 | 0.0 | 0.0 | 0.02 | 0.07 | 0.06 | 93 | 1008.8 |
| 20260506081003 | 43 | 0 | 0.0 | 0.0 | 0.02 | 0.06 | 0.05 | 93 | 1008.7 |
| 20260506073003 | 43 | 0 | 0.0 | 0.0 | 0.03 | 0.05 | 0.03 | 92 | 1009.0 |
| 20260506072003 | 43 | 142 | 0.0 | 2.0 | 0.03 | 0.05 | 0.03 | 91 | 1008.9 |
| 20260506071003 | 44 | 171 | 0.0 | 1.0 | 0.02 | 0.04 | 0.02 | 91 | 1009.0 |
| 20260506062003 | 45 | 181 | 1.0 | 3.0 | 0.00 | 0.02 | 0.00 | 87 | 1009.7 |
| 20260506061003 | 45 | 157 | 0.0 | 3.0 | 0.00 | 0.02 | 0.00 | 87 | 1009.6 |
| 20260506051003 | 45 | 191 | 0.0 | 1.0 | 0.00 | 0.02 | 0.00 | 82 | 1009.5 |
| 20260506045003 | 45 | 129 | 0.0 | 1.0 | 0.00 | 0.02 | 0.00 | 81 | 1009.5 |
| 20260506044003 | 46 | 169 | 0.0 | 1.0 | 0.00 | 0.02 | 0.00 | 79 | 1009.4 |
| 20260506043003 | 46 | 142 | 0.0 | 2.0 | 0.00 | 0.02 | 0.00 | 78 | 1009.4 |
| 20260506042024 | 46 | 79 | 0.0 | 1.0 | 0.00 | 0.02 | 0.00 | 77 | 1009.4 |
| 20260506041003 | 46 | 169 | 0.0 | 1.0 | 0.00 | 0.02 | 0.00 | 75 | 1009.7 |